This demonstration page uses our WeatherBlox Daily Observations layout. Learn more.

Left ArrowRight Arrow

36.17497, -115.13722

Hourly Observations for April 7, 2017

Temp ( °F °C ) Dew Point ( °F °C ) Humidity (%) Winds ( mph kmh ) Pressure ( in mb ) Visibility ( mi km ) Precip ( " mm )
12:53 am 00:53 Clear 72 22.2 18 -7.8 13 13 WSW 14 22 29.89 1012 10 16 N/A
1:53 am 01:53 Clear 70 21.1 15 -9.4 12 12 SW 16 26 29.88 1012 10 16 N/A
2:53 am 02:53 Clear 70 21.1 15 -9.4 12 12 SSW 10 17 29.87 1012 10 16 N/A
3:53 am 03:53 Clear 69 20.6 16 -8.9 13 13 S 8 13 29.88 1012 10 16 N/A
4:53 am 04:53 Clear 68 20 16 -8.9 13 13 S 10 17 29.88 1012 10 16 N/A
5:53 am 05:53 Clear 67 19.4 15 -9.4 13 13 S 8 13 29.88 1012 10 16 N/A
6:53 am 06:53 Sunny 68 20 13 -10.6 12 12 S 16 26 29.90 1012 10 16 N/A
7:53 am 07:53 Sunny 69 20.6 14 -10 12 12 SSW 13 20 29.90 1013 10 16 N/A
8:53 am 08:53 Sunny 70 21.1 13 -10.6 11 11 S 10 17 29.92 1013 10 16 N/A
9:53 am 09:53 Sunny 73 22.8 13 -10.6 10 10 SW 13 20 29.93 1014 10 16 N/A
10:53 am 10:53 Sunny 73 22.8 12 -11.1 9 9 SSW 8 13 29.95 1014 10 16 N/A
11:53 am 11:53 Sunny 79 26.1 13 -10.6 8 8 SSW 17 28 29.91 1013 10 16 N/A
12:53 pm 12:53 Partly Cloudy 80 26.7 10 -12.2 7 7 SSW 21 33 29.89 1012 10 16 N/A
1:53 pm 13:53 Mostly Cloudy 80 26.7 14 -10 8 8 S 23 37 29.87 1011 10 16 N/A
2:53 pm 14:53 Sunny 80 26.7 18 -7.8 10 10 SSW 23 37 29.83 1010 10 16 N/A
3:53 pm 15:53 Sunny 80 26.7 21 -6.1 11 11 SSW 17 28 29.82 1010 10 16 N/A
4:53 pm 16:53 Sunny 79 26.1 25 -3.9 14 14 SSW 14 22 29.81 1009 10 16 N/A
5:53 pm 17:53 Sunny 77 25 24 -4.4 14 14 SSW 14 22 29.80 1009 10 16 N/A
6:53 pm 18:53 Sunny 76 24.4 19 -7.2 12 12 SSW 15 24 29.80 1009 10 16 N/A
7:53 pm 19:53 Clear 75 23.9 20 -6.7 12 12 SSW 14 22 29.80 1009 10 16 N/A
8:53 pm 20:53 Clear 73 22.8 21 -6.1 14 14 S 10 17 29.81 1010 10 16 N/A
9:53 pm 21:53 Clear 72 22.2 17 -8.3 12 12 S 12 19 29.80 1009 10 16 N/A
10:53 pm 22:53 Clear 72 22.2 22 -5.6 15 15 SW 17 28 29.81 1009 10 16 N/A
11:53 pm 23:53 Clear 70 21.1 23 -5 17 17 SSW 16 26 29.80 1009 10 16 N/A

Powered by AerisWeather